FW0954 Weather Reports


time (UTC)temp
C
wind
direction
speed
KPH
gust
KPH
rain 1hr
cm
rain 24hr
cm
rain mn
cm
humidity
%
barometer
mb
20260510084003 23 135 0.0 3.2 0.00 0.00 0.00 92 1012.1
20260510083503 23 0 0.0 0.0 0.00 0.00 0.00 92 1012.1
20260510083003 22 0 0.0 0.0 0.00 0.00 0.00 92 1012.2
20260510082003 22 0 0.0 0.0 0.00 0.00 0.00 91 1011.8
20260510081003 22 128 0.0 1.6 0.00 0.00 0.00 91 1011.2
20260510080503 22 128 0.0 1.6 0.00 0.00 0.00 90 1011.1
20260510075503 22 127 0.0 1.6 0.00 0.00 0.00 90 1010.9
20260510075003 23 126 0.0 1.6 0.00 0.00 0.00 90 1011.0
20260510074503 23 147 0.0 3.2 0.00 0.00 0.00 90 1010.7
20260510073003 23 147 0.0 1.6 0.00 0.00 0.00 89 1010.5
20260510072503 23 0 0.0 0.0 0.00 0.00 0.00 88 1010.8
20260510072003 23 0 0.0 0.0 0.00 0.00 0.00 87 1010.9
20260510071504 23 0 0.0 0.0 0.00 0.00 0.00 87 1011.2
20260510071003 23 0 0.0 0.0 0.00 0.00 0.00 87 1011.3
20260510070503 23 0 0.0 0.0 0.00 0.00 0.00 87 1011.5
20260510070003 23 0 0.0 0.0 0.00 0.00 0.00 87 1011.7
20260510065503 23 0 0.0 0.0 0.00 0.00 0.00 87 1011.6
20260510065004 23 0 0.0 0.0 0.00 0.00 0.00 87 1011.6
20260510064504 23 0 0.0 0.0 0.00 0.00 0.00 86 1011.6
20260510064003 23 0 0.0 0.0 0.00 0.00 0.00 86 1011.6
20260510063503 23 0 0.0 0.0 0.00 0.00 0.00 86 1011.7
20260510063003 23 0 0.0 0.0 0.00 0.00 0.00 86 1011.6
20260510062504 23 156 0.0 1.6 0.00 0.00 0.00 85 1011.1
20260510062004 23 169 1.6 3.2 0.00 0.00 0.00 85 1010.7
20260510061503 23 160 1.6 6.4 0.00 0.00 0.00 85 1010.3
20260510061003 23 159 3.2 9.7 0.00 0.00 0.00 85 1010.0
20260510060003 23 161 1.6 9.7 0.00 0.00 0.00 86 1009.8
20260510055504 23 155 1.6 6.4 0.00 0.00 0.00 86 1009.8
20260510055004 23 156 1.6 6.4 0.00 0.00 0.00 86 1009.7
20260510054003 23 156 1.6 8.0 0.00 0.00 0.00 87 1009.6
20260510053503 23 146 1.6 8.0 0.00 0.00 0.00 87 1009.6
20260510053003 23 138 1.6 8.0 0.00 0.00 0.00 87 1009.6
20260510052503 23 133 1.6 6.4 0.00 0.00 0.00 87 1009.7
20260510052003 23 135 1.6 8.0 0.00 0.00 0.00 87 1009.8
20260510051004 23 136 1.6 4.8 0.00 0.00 0.00 87 1009.5
20260510050503 23 149 1.6 4.8 0.00 0.00 0.00 87 1009.4
20260510050004 23 145 1.6 6.4 0.00 0.00 0.00 87 1009.3
20260510045504 23 144 1.6 8.0 0.00 0.00 0.00 86 1009.2
20260510045003 23 143 1.6 8.0 0.00 0.00 0.00 86 1009.2
20260510044001 23 131 1.6 6.4 0.00 0.00 0.00 86 1009.1
20260510043501 23 116 0.0 6.4 0.00 0.00 0.00 85 1009.2
20260510043001 23 114 0.0 4.8 0.00 0.00 0.00 85 1009.2
20260510042001 23 130 0.0 1.6 0.00 0.00 0.00 83 1009.4
20260510041501 23 147 0.0 1.6 0.00 0.00 0.00 82 1009.5
20260510041001 23 148 0.0 1.6 0.00 0.00 0.00 82 1009.5
20260510035501 23 161 0.0 3.2 0.00 0.00 0.00 81 1009.3
20260510035001 23 147 0.0 3.2 0.00 0.00 0.00 81 1009.4
20260510034501 23 135 0.0 3.2 0.00 0.00 0.00 81 1009.3
20260510033502 23 184 0.0 3.2 0.00 0.00 0.00 81 1009.4
20260510032501 23 137 0.0 1.6 0.00 0.00 0.00 81 1009.5
20260510032002 23 115 0.0 1.6 0.00 0.00 0.00 81 1009.4
20260510031501 23 115 0.0 1.6 0.00 0.00 0.00 80 1009.4
20260510031001 23 107 0.0 1.6 0.00 0.00 0.00 80 1009.4
20260510030501 23 106 0.0 1.6 0.00 0.00 0.00 80 1009.4
20260510030002 23 107 0.0 4.8 0.00 0.00 0.00 79 1009.4
20260510025501 23 109 0.0 4.8 0.00 0.00 0.00 80 1009.4
20260510025002 23 118 0.0 1.6 0.00 0.00 0.00 79 1009.4
20260510024501 23 117 0.0 1.6 0.00 0.00 0.00 79 1009.3
20260510024002 23 0 0.0 0.0 0.00 0.00 0.00 79 1009.2
20260510023502 24 0 0.0 0.0 0.00 0.00 0.00 78 1009.2
20260510022501 24 94 0.0 1.6 0.00 0.00 0.00 78 1009.1
20260510022002 24 94 0.0 1.6 0.00 0.00 0.00 78 1009.1
20260510021001 25 62 0.0 1.6 0.00 0.00 0.00 77 1008.9
20260510020502 25 0 0.0 0.0 0.00 0.00 0.00 76 1008.9
20260510020001 25 0 0.0 0.0 0.00 0.00 0.00 76 1008.9
20260510015502 25 62 0.0 1.6 0.00 0.00 0.00 75 1008.8
20260510014001 26 0 0.0 0.0 0.00 0.00 0.00 73 1008.7
20260510013502 26 108 0.0 1.6 0.00 0.00 0.00 73 1008.6
20260510013002 26 86 0.0 3.2 0.00 0.00 0.00 72 1008.4
20260510012501 26 102 0.0 3.2 0.00 0.00 0.00 71 1008.5
20260510012001 26 99 0.0 4.8 0.00 0.00 0.00 70 1008.5
20260510011501 27 81 0.0 4.8 0.00 0.00 0.00 68 1008.5
20260510011002 27 137 0.0 1.6 0.00 0.00 0.00 66 1008.3
20260510010501 27 137 0.0 1.6 0.00 0.00 0.00 65 1008.3
20260510010001 28 139 0.0 1.6 0.00 0.00 0.00 61 1008.3
20260510005502 29 0 0.0 0.0 0.00 0.00 0.00 59 1008.2
20260510005001 30 0 0.0 0.0 0.00 0.00 0.00 57 1008.3
20260510003502 32 139 0.0 1.6 0.00 0.00 0.00 53 1008.2
20260510003003 32 0 0.0 0.0 0.00 0.00 0.00 52 1008.3
20260510002502 32 0 0.0 0.0 0.00 0.00 0.00 51 1008.3
20260510002002 33 0 0.0 0.0 0.00 0.00 0.00 51 1008.2
20260510001001 33 139 0.0 1.6 0.00 0.00 0.00 50 1008.3
20260510000502 32 139 0.0 1.6 0.00 0.00 0.00 51 1008.3
20260510000001 32 139 0.0 1.6 0.00 0.00 0.00 50 1008.2
20260509235502 32 139 0.0 1.6 0.00 0.00 0.00 51 1008.1
20260509235002 32 139 0.0 1.6 0.00 0.00 0.00 51 1008.1
20260509234501 32 139 0.0 1.6 0.00 0.00 0.00 52 1008.1
20260509234002 32 139 0.0 1.6 0.00 0.00 0.00 51 1008.1
20260509233502 32 132 0.0 1.6 0.00 0.00 0.00 52 1008.1
20260509232502 32 128 0.0 3.2 0.00 0.00 0.00 51 1008.1
20260509232001 32 130 0.0 4.8 0.00 0.00 0.00 51 1008.1
20260509231502 32 115 0.0 4.8 0.00 0.00 0.00 50 1008.1
20260509231001 32 92 0.0 1.6 0.00 0.00 0.00 51 1008.2
20260509230502 32 125 0.0 1.6 0.00 0.00 0.00 51 1008.2
20260509230003 32 124 0.0 3.2 0.00 0.00 0.00 50 1008.1
20260509225502 32 124 0.0 3.2 0.00 0.00 0.00 51 1008.2
20260509225002 32 160 0.0 1.6 0.00 0.00 0.00 51 1008.2
20260509224502 33 121 0.0 1.6 0.00 0.00 0.00 49 1008.1
20260509224002 33 90 0.0 1.6 0.00 0.00 0.00 51 1008.1
20260509223001 32 96 0.0 1.6 0.00 0.00 0.00 52 1008.0
20260509222502 32 99 0.0 1.6 0.00 0.00 0.00 50 1008.0
20260509222001 32 91 0.0 3.2 0.00 0.00 0.00 51 1008.1
20260509221502 32 100 0.0 3.2 0.00 0.00 0.00 51 1008.1
20260509220501 32 128 0.0 3.2 0.00 0.00 0.00 54 1008.1
20260509215502 32 47 0.0 3.2 0.00 0.00 0.00 55 1008.1
20260509215001 32 82 0.0 3.2 0.00 0.00 0.00 54 1008.2
20260509214502 32 108 0.0 3.2 0.00 0.00 0.00 54 1008.2
20260509214001 32 115 0.0 3.2 0.00 0.00 0.00 55 1008.2
20260509213501 32 109 0.0 4.8 0.00 0.00 0.00 57 1008.2
20260509213002 32 122 0.0 4.8 0.00 0.00 0.00 57 1008.4
20260509212502 32 124 0.0 4.8 0.00 0.00 0.00 57 1008.4
20260509212002 32 117 0.0 4.8 0.00 0.00 0.00 58 1008.6
20260509211502 32 120 0.0 4.8 0.00 0.00 0.00 57 1008.6
20260509211002 32 114 0.0 3.2 0.00 0.00 0.00 57 1008.6
20260509210002 32 78 0.0 3.2 0.00 0.00 0.00 61 1008.7
20260509205502 32 86 0.0 3.2 0.00 0.00 0.00 60 1008.9
20260509205001 32 109 0.0 4.8 0.00 0.00 0.00 61 1008.9
20260509204502 32 117 0.0 4.8 0.00 0.00 0.00 59 1009.1
20260509204001 31 117 1.6 4.8 0.00 0.00 0.00 61 1009.1
20260509203502 31 115 1.6 4.8 0.00 0.00 0.00 61 1009.2
20260509203002 32 114 0.0 4.8 0.00 0.00 0.00 61 1009.3
20260509202502 32 122 0.0 1.6 0.00 0.00 0.00 62 1009.3
20260509202002 31 101 0.0 3.2 0.00 0.00 0.00 63 1009.4
20260509201503 31 270 0.0 4.8 0.00 0.00 0.00 62 1009.4
20260509201002 31 261 0.0 4.8 0.00 0.00 0.00 63 1009.5
20260509200002 31 12 0.0 3.2 0.00 0.00 0.00 65 1009.5
20260509195002 31 100 0.0 3.2 0.00 0.00 0.00 65 1009.5
20260509194502 31 89 0.0 3.2 0.00 0.00 0.00 65 1009.6
20260509194002 31 92 0.0 3.2 0.00 0.00 0.00 68 1009.6
20260509193502 31 91 0.0 4.8 0.00 0.00 0.00 68 1009.6
20260509193002 30 81 0.0 4.8 0.00 0.00 0.00 67 1009.7
20260509192502 31 39 0.0 4.8 0.00 0.00 0.00 67 1009.6
20260509191002 31 104 0.0 8.0 0.00 0.00 0.00 67 1009.9
20260509190002 31 139 0.0 4.8 0.00 0.00 0.00 66 1009.9
20260509185502 30 115 0.0 4.8 0.00 0.00 0.00 69 1010.0
20260509185002 30 99 1.6 6.4 0.00 0.00 0.00 69 1009.9
20260509184502 30 61 0.0 6.4 0.00 0.00 0.00 68 1009.9
20260509184002 30 15 1.6 4.8 0.00 0.00 0.00 69 1009.9
20260509183502 30 37 0.0 3.2 0.00 0.00 0.00 69 1009.8
20260509181502 30 87 0.0 4.8 0.00 0.00 0.00 71 1010.1
20260509181002 30 66 0.0 4.8 0.00 0.00 0.00 70 1010.1
20260509180502 30 50 0.0 3.2 0.00 0.00 0.00 70 1010.2
20260509175502 30 104 0.0 4.8 0.00 0.00 0.00 70 1010.1
20260509175003 30 100 0.0 4.8 0.00 0.00 0.00 69 1010.2
20260509174502 30 106 0.0 3.2 0.00 0.00 0.00 69 1010.3
20260509174002 30 61 0.0 3.2 0.00 0.00 0.00 70 1010.4
20260509173503 29 42 0.0 3.2 0.00 0.00 0.00 71 1010.3
20260509172503 29 118 0.0 3.2 0.00 0.00 0.00 71 1010.5
20260509172002 28 130 0.0 3.2 0.00 0.00 0.00 71 1010.6
20260509171002 28 238 0.0 4.8 0.00 0.00 0.00 71 1010.8
20260509170503 28 193 0.0 4.8 0.00 0.00 0.00 70 1010.8
20260509170002 28 118 0.0 4.8 0.00 0.00 0.00 71 1010.8
20260509165502 28 136 0.0 3.2 0.00 0.00 0.00 72 1010.7
20260509165002 28 251 0.0 3.2 0.00 0.00 0.00 73 1010.8
20260509164503 28 273 0.0 3.2 0.00 0.00 0.00 72 1010.8
20260509163502 27 300 0.0 4.8 0.00 0.00 0.00 72 1010.8
20260509163003 27 306 1.6 4.8 0.00 0.00 0.00 74 1010.8
20260509162502 27 283 1.6 6.4 0.00 0.00 0.00 74 1010.8
20260509162003 27 281 1.6 6.4 0.00 0.00 0.00 75 1010.7
20260509161003 27 258 0.0 4.8 0.00 0.00 0.00 75 1010.8
20260509160003 26 288 1.6 9.7 0.00 0.00 0.00 75 1010.7
20260509155003 26 291 1.6 4.8 0.00 0.00 0.00 76 1010.7
20260509154503 26 339 0.0 4.8 0.00 0.00 0.00 77 1010.6
20260509154002 26 31 0.0 4.8 0.00 0.00 0.00 75 1010.5
20260509153503 26 338 0.0 1.6 0.00 0.00 0.00 77 1010.4
20260509152503 26 294 0.0 3.2 0.00 0.00 0.00 78 1010.3
20260509152002 26 307 1.6 4.8 0.00 0.00 0.00 77 1010.3
20260509151502 26 313 0.0 4.8 0.00 0.00 0.00 78 1010.3
20260509151003 26 346 0.0 3.2 0.00 0.00 0.00 79 1010.5
20260509150502 25 330 1.6 6.4 0.00 0.00 0.00 79 1010.4
20260509150002 25 312 1.6 6.4 0.00 0.00 0.00 79 1010.5
20260509145002 25 309 0.0 6.4 0.00 0.00 0.00 80 1010.5
20260509144502 25 330 0.0 3.2 0.00 0.00 0.00 81 1010.6
20260509144003 25 312 0.0 3.2 0.00 0.00 0.00 81 1010.4
20260509143502 25 326 0.0 3.2 0.00 0.00 0.00 83 1010.5
20260509143003 24 311 0.0 6.4 0.00 0.00 0.00 83 1010.6
20260509142503 24 280 0.0 6.4 0.00 0.00 0.00 84 1010.5
20260509142003 24 255 0.0 6.4 0.00 0.00 0.00 85 1010.4
20260509141502 23 254 0.0 4.8 0.00 0.00 0.00 85 1010.4
20260509141003 23 168 0.0 1.6 0.00 0.00 0.00 85 1010.5
20260509135503 23 271 0.0 4.8 0.00 0.00 0.00 88 1010.2
20260509135002 22 275 0.0 4.8 0.00 0.00 0.00 89 1010.2
20260509134503 22 276 0.0 4.8 0.00 0.00 0.00 89 1010.4
20260509134003 22 280 0.0 4.8 0.00 0.00 0.00 90 1010.2
20260509133503 22 283 1.6 11.3 0.00 0.00 0.00 90 1010.2
20260509133003 22 279 1.6 11.3 0.00 0.00 0.00 90 1010.2
20260509132503 22 274 1.6 9.7 0.00 0.00 0.00 91 1010.1
20260509132003 21 291 1.6 11.3 0.00 0.00 0.00 91 1009.9
20260509131502 21 283 1.6 11.3 0.00 0.00 0.00 91 1010.0
20260509131003 21 278 1.6 8.0 0.00 0.00 0.00 92 1010.0
20260509130503 21 278 1.6 6.4 0.00 0.00 0.00 93 1009.9
20260509130002 21 284 1.6 4.8 0.00 0.00 0.00 95 1009.9
20260509125002 21 273 0.0 6.4 0.00 0.00 0.00 96 1010.1
20260509124503 21 275 0.0 4.8 0.00 0.00 0.00 96 1009.9
20260509124002 20 274 0.0 4.8 0.00 0.00 0.00 96 1010.0
20260509123503 20 0 0.0 0.0 0.00 0.00 0.00 96 1010.1
20260509123002 20 0 0.0 0.0 0.00 0.00 0.00 95 1010.0
20260509122503 20 0 0.0 0.0 0.00 0.00 0.00 95 1010.0
20260509122002 20 0 0.0 0.0 0.00 0.00 0.00 95 1010.1
20260509121503 20 0 0.0 0.0 0.00 0.00 0.00 95 1010.0
20260509121002 20 0 0.0 0.0 0.00 0.00 0.00 95 1009.9
20260509120502 20 0 0.0 0.0 0.00 0.00 0.00 94 1009.9
20260509120003 20 0 0.0 0.0 0.00 0.00 0.00 94 1009.8
20260509115502 20 0 0.0 0.0 0.00 0.00 0.00 94 1009.7
20260509115003 20 0 0.0 0.0 0.00 0.00 0.00 94 1009.7
20260509114503 20 0 0.0 0.0 0.00 0.00 0.00 94 1009.5
20260509113503 21 183 0.0 3.2 0.00 0.00 0.00 94 1009.5
20260509113003 21 183 0.0 3.2 0.00 0.00 0.00 94 1009.4
20260509112503 21 179 0.0 3.2 0.00 0.00 0.00 94 1009.3
20260509112003 21 182 0.0 3.2 0.00 0.00 0.00 94 1009.3
20260509111503 21 183 0.0 3.2 0.00 0.00 0.00 94 1009.2
20260509111002 21 187 0.0 3.2 0.00 0.00 0.00 94 1009.2
20260509110503 21 190 0.0 3.2 0.00 0.00 0.00 94 1009.3
20260509110003 21 0 0.0 0.0 0.00 0.00 0.00 94 1009.4
20260509105503 21 0 0.0 0.0 0.00 0.00 0.00 94 1009.3
20260509105003 21 0 0.0 0.0 0.00 0.00 0.00 94 1009.3
20260509104503 21 0 0.0 0.0 0.00 0.00 0.00 94 1009.3
20260509104003 21 0 0.0 0.0 0.00 0.00 0.00 94 1009.2
20260509103503 21 0 0.0 0.0 0.00 0.00 0.00 94 1009.2
20260509102502 21 0 0.0 0.0 0.00 0.00 0.00 94 1009.1
20260509102003 21 0 0.0 0.0 0.00 0.00 0.00 94 1009.1
20260509101502 21 274 0.0 1.6 0.00 0.00 0.00 95 1008.9
20260509101003 21 274 0.0 1.6 0.00 0.00 0.00 95 1008.8
20260509100503 21 274 0.0 1.6 0.00 0.00 0.00 95 1008.7
20260509100004 21 274 0.0 1.6 0.00 0.00 0.00 95 1008.6
20260509095503 20 276 0.0 3.2 0.00 0.00 0.00 95 1008.5
20260509095003 20 279 1.6 9.7 0.00 0.00 0.00 95 1008.4
20260509094503 20 270 1.6 9.7 0.00 0.00 0.00 95 1008.4
20260509094003 20 170 1.6 8.0 0.00 0.00 0.00 95 1008.1
20260509093503 20 159 1.6 8.0 0.00 0.00 0.00 95 1007.7
20260509093003 20 158 1.6 8.0 0.00 0.00 0.00 95 1007.6
20260509092003 20 159 3.2 11.3 0.00 0.00 0.00 94 1007.4
20260509091503 20 153 3.2 9.7 0.00 0.00 0.00 94 1006.8
20260509091003 20 149 3.2 9.7 0.00 0.00 0.00 93 1006.8
20260509090502 20 148 3.2 11.3 0.00 0.00 0.00 93 1006.9
20260509090003 20 157 3.2 11.3 0.00 0.00 0.00 93 1007.4
20260509085503 20 161 3.2 11.3 0.00 0.00 0.00 93 1007.4